Regional Weather Roundup
Issued by NWS

Home | Current Version | Previous Version | Text Only | Print | Product List | Glossary Off
Versions: 1 2 3 4 5 6 7 8 9 10 11 12 13 14 15 16 17 18 19 20 21 22 23 24 25 26 27 28 29 30 31 32 33 34 35 36 37 38 39 40 41 42 43 44 45 46 47 48 49 50

000
ASUS43 KDTX 030510
RWRMI
MICHIGAN HOURLY REGIONAL WEATHER ROUNDUP
NATIONAL WEATHER SERVICE DETROIT/PONTIAC MI
100 AM EDT FRI JUL 03 2015

NOTE: "FAIR" INDICATES FEW OR NO CLOUDS BELOW 12,000 FEET WITH NO
SIGNIFICANT WEATHER AND/OR OBSTRUCTION TO VISIBILITY.

MIZ047>049-052>055-059>063-066>070-074>076-081>083-030600-
SOUTHEAST LOWER MICHIGAN

CITY           SKY/WX    TMP DP  RH WIND       PRES   REMARKS
ADRIAN         CLEAR     61  55  81 E7        30.01S
ALMA           CLEAR     51  49  93 CALM      30.03S
ANN ARBOR      CLEAR     53  51  93 CALM      30.02R
BAD AXE        CLEAR     43  41  91 CALM      30.03S
CARO           CLEAR     48  47  97 CALM      30.03R
DETROIT CITY   CLEAR     58  48  69 E3        30.02R
DETROIT        PTCLDY    61  50  67 CALM      30.03R
FLINT          CLEAR     56  49  77 S3        30.03R
GROSSE ILE     CLEAR     61  52  72 NE5       30.01R
HILLSDALE      PTCLDY    57  56  99 E3        30.01S
HOWELL         CLEAR     56  50  80 CALM      30.03R

CITY           SKY/WX    TMP DP  RH WIND       PRES   REMARKS
JACKSON        CLEAR     56  51  84 NE5       30.02R
LAMBERTVILLE   CLEAR     61  57  87 CALM      30.00S
LANSING        CLEAR     57  47  69 CALM      30.03R
LAPEER         FAIR      48  46  93 CALM      30.03R
MASON          CLEAR     55  47  76 CALM      30.03R
MONROE         CLEAR     58  53  81 NE3       30.01R
MT. CLEMENS    CLEAR     55  49  82 N5        30.00S
PONTIAC        CLEAR     57  48  72 E5        30.02R
PORT HOPE        N/A     50  46  86 CALM      30.01S
PORT HURON     PTCLDY    48  48 100 CALM      30.02S FOG
TRI CITIES     CLEAR     57  46  66 CALM      30.04R
MIDLAND        FAIR      49  46  92 CALM      30.03R
TROY           CLEAR     59  48  66 NE3       30.04R
SAGINAW HB     CLEAR     52  45  76 CALM      30.02S
$$
MIZ043>046-050>051-056>058-064>065-071>073-077>080-030600-
SOUTHWEST LOWER MICHIGAN

CITY           SKY/WX    TMP DP  RH WIND       PRES   REMARKS
BATTLE CREEK   CLEAR     61  51  70 NE7       30.01S
BENTON HARBOR  PTCLDY    53  50  89 CALM      29.99R
BIG RAPIDS     CLEAR     52  48  85 W3        30.03R
COLDWATER      PTCLDY    59  53  80 E6        30.00S
FREMONT        FAIR      55  53  94 CALM      30.02R
HOLLAND        CLEAR     59  52  77 E3        30.02R
GRAND RAPIDS   CLEAR     57  49  74 E3        30.02R
IONIA          FAIR      53  50  92 E3        30.02R
KALAMAZOO      CLEAR     60  52  74 NE3       30.01R
LUDINGTON      CLEAR     51  48  89 CALM      30.01S
MARSHALL       CLEAR     59  52  77 CALM      30.00S
MOUNT PLEASANT CLEAR     51  49  92 CALM      30.03R
MUSKEGON       CLEAR     58  53  84 CALM      30.02R
SOUTH HAVEN    PTCLDY    57  53  85 E3        30.00R
$$
MIZ016>042-030600-
NORTHERN LOWER MICHIGAN

CITY           SKY/WX    TMP DP  RH WIND       PRES   REMARKS
ALPENA         CLEAR     51  43  74 CALM      30.02S
BEAVER ISLAND  CLEAR     49  44  84 CALM      29.99S
BELLAIRE       CLEAR     50  48  94 CALM      30.00F
CADILLAC       CLEAR     48  46  93 CALM      30.03S
CHARLEVOIX     CLEAR     53  48  83 SE3       30.02F
FRANKFORT      CLEAR     52  44  75 CALM      30.00S
GAYLORD        CLEAR     55  49  80 SW5       30.02F
GRAYLING       CLEAR     46  43  90 CALM      30.03F
HARBOR SPRINGS CLEAR     52  50  92 CALM      30.00S
HOUGHTON LAKE  CLEAR     49  47  93 CALM      30.04S
MANISTEE       CLEAR    N/A N/A N/A E3        30.01R
OSCODA         CLEAR     47  41  79 CALM      30.02S
PELLSTON       CLEAR     50  48  93 CALM      30.00S
ROGERS CITY    CLEAR     57  45  62 S5        30.01F
TRAVERSE CITY  CLEAR     53  47  79 CALM      29.99F
$$
MIZ007>008-015-030600-
EASTERN UPPER MICHIGAN

CITY           SKY/WX    TMP DP  RH WIND       PRES   REMARKS
KINROSS        CLEAR     57  46  67 SW3       29.99R
MACKINAC ISLAN CLEAR     56  50  81 SW7       29.98F
NEWBERRY       PTCLDY    55  45  67 SW8       29.97S
S. S. MARIE    MOCLDY    58  47  66 W3        29.98S
MUNISING         N/A     62  47  57 SW9       29.95S
$$
MIZ004>006-011>014-085-030600-
CENTRAL UPPER MICHIGAN

CITY           SKY/WX    TMP DP  RH WIND       PRES   REMARKS
MANISTIQUE     CLEAR     55  45  68 CALM      29.98S
ESCANABA       CLEAR     55  52  88 CALM      29.97F
MENOMINEE      CLEAR     54  48  82 CALM      29.98F
SAWYER-GWINN   MOCLDY    58  47  68 SW6       29.97S
$$
MIZ001>003-009>011-084-030600-
WESTERN UPPER MICHIGAN

CITY           SKY/WX    TMP DP  RH WIND       PRES   REMARKS
IRON MOUNTAIN  CLEAR     58  48  69 S3        29.98S
HOUGHTON       MOCLDY    60  55  83 SW3       29.90F
COPPER HARBOR    N/A     65  51  60 SW8       29.87F
IRONWOOD       CLEAR     63  54  72 SW8       29.93S
$$

ABBREVIATIONS USED IN REMARKS
   TC - TEMPERATURE IN CELSIUS
  WCI - WIND CHILL INDEX
   HX - HEAT INDEX
  VSB - VISIBILITY




USA.gov is the U.S. government's official web portal to all federal, state and local government web resources and services.